DateTimeUTC,F1_A11,F1_S11,BsB_S11,BsG_S11,BsR_S11,BbsB_S11,BbsG_S11,BbsR_S11,BaB_A11,BaG_A11,BaR_A11,Tu_S11,T_S11,Uu_S11,U_S11,P_S11,T1_A11
2021-12-08T12:00:00Z,00000200,21000000,,,,,,,-000.29,-000.38,-000.09,21.2,28.0,,00.0,0635.8,31.5
2021-12-08T12:01:00Z,00000200,21000000,,,,,,,-000.07,0000.39,-000.39,21.2,28.0,,00.0,0635.9,31.5
2021-12-08T12:02:00Z,00000200,21000000,,,,,,,-000.22,-000.03,0000.27,21.2,28.0,,00.0,0635.9,31.5
2021-12-08T12:03:00Z,00000200,61000000,,,,,,,-000.01,-000.37,-000.21,21.2,28.0,,00.0,0635.9,31.5
2021-12-08T12:04:00Z,00000200,41000000,0000.61,0000.24,0000.18,0000.21,0000.22,-000.18,0000.15,0000.06,0000.23,21.4,27.9,,00.0,0636.8,31.5
2021-12-08T12:05:00Z,00000200,01000000,-000.27,-000.09,0000.06,0000.49,-000.00,-000.35,-000.31,0000.06,0000.00,21.4,27.9,,00.0,0636.9,31.5
2021-12-08T12:06:00Z,00000200,01000000,-000.06,0000.19,0000.01,0000.56,-000.19,0000.29,0000.38,-000.18,0000.08,21.3,27.8,,00.0,0636.9,31.5
2021-12-08T12:07:00Z,00000200,01000000,-000.29,0000.22,-000.26,0000.54,-000.03,-000.18,-000.19,-000.15,-000.30,21.2,27.8,,00.0,0636.8,31.4
2021-12-08T12:08:00Z,00000200,01000000,-000.50,-000.14,0000.02,0000.31,-000.12,-000.36,-000.29,-000.11,-000.18,21.2,27.7,,00.0,0636.9,31.4
2021-12-08T12:09:00Z,00000200,01000000,-000.42,0000.28,-000.07,0000.62,0000.09,0000.12,0000.19,-000.08,0000.14,21.2,27.7,,00.0,0636.9,31.4
2021-12-08T12:10:00Z,00000200,01000000,0000.32,0000.17,-000.15,0000.08,-000.01,-000.04,-000.09,0000.06,-000.08,21.2,27.7,,00.0,0636.8,31.4
2021-12-08T12:11:00Z,00000200,01000000,-000.05,0000.18,0000.01,0000.02,-000.08,0000.03,-000.15,0000.10,0000.20,21.2,27.7,,00.0,0636.9,31.4
2021-12-08T12:12:00Z,00000200,01000000,0000.06,0000.36,0000.00,0000.66,-000.19,0000.11,0000.23,0000.02,0000.20,21.3,27.7,,00.0,0636.9,31.4
2021-12-08T12:13:00Z,00000200,01000000,0000.21,0000.34,0000.03,0000.07,0000.16,0000.07,0000.06,-000.12,-000.31,21.3,27.7,,00.0,0637.0,31.5
2021-12-08T12:14:00Z,00000200,01000000,0000.48,0000.43,0000.26,0000.28,0000.16,0000.04,-000.03,-000.09,0000.29,21.4,27.7,,00.0,0637.0,31.5
2021-12-08T12:15:00Z,00000200,01000000,0000.56,-000.02,0000.15,0000.18,-000.12,-000.14,-000.22,0000.36,-000.40,21.4,27.7,,00.0,0637.0,31.5
2021-12-08T12:16:00Z,00000200,01000000,0000.23,0000.36,0000.17,-000.17,-000.12,0000.13,-000.15,-000.38,-000.15,21.4,27.7,,00.0,0637.0,31.5
2021-12-08T12:17:00Z,00000200,01000000,-000.11,0000.27,-000.28,0000.02,0000.11,0000.06,0000.39,0000.13,0000.50,21.5,27.8,,00.0,0637.0,31.5
2021-12-08T12:18:00Z,00000200,01000000,0000.52,-000.14,0000.12,-000.06,-000.02,-000.37,-000.01,0000.14,-000.37,21.4,27.8,,00.0,0637.0,31.5
2021-12-08T12:19:00Z,00000200,01000000,0000.34,0000.50,0000.12,0000.10,-000.11,-000.24,-000.25,-000.11,0000.10,21.3,27.7,,00.0,0637.0,31.4
2021-12-08T12:20:00Z,00000200,01000000,0000.35,0000.38,0000.22,-000.26,-000.17,0000.02,-000.08,-000.27,-000.11,21.3,27.7,,00.0,0637.0,31.4
2021-12-08T12:21:00Z,00000200,01000000,-000.01,0000.35,0000.10,0000.02,0000.13,-000.40,-000.07,0000.06,-000.13,21.2,27.7,,00.0,0637.0,31.4
2021-12-08T12:22:00Z,00000200,01000000,0000.30,0000.45,0000.19,-000.01,0000.03,0000.30,0000.19,-000.04,-000.14,21.1,27.6,,00.0,0637.0,31.3
2021-12-08T12:23:00Z,00000200,01000000,0000.39,0000.43,0000.04,-000.32,-000.04,0000.29,-000.01,0000.10,0000.26,21.0,27.6,,00.0,0637.0,31.3
2021-12-08T12:24:00Z,00000200,01000000,0000.67,0000.17,-000.03,0000.98,-000.04,-000.04,-000.14,-000.37,-000.38,21.0,27.5,,00.0,0637.0,31.3
2021-12-08T12:25:00Z,00000200,01000000,0000.43,-000.05,-000.04,0000.51,-000.06,0000.01,-000.12,0000.15,0000.41,21.0,27.5,,00.0,0637.1,31.3
2021-12-08T12:26:00Z,00000200,01000000,-000.30,0000.24,-000.04,-000.77,0000.08,-000.40,0000.23,0000.11,-000.27,21.0,27.6,,00.0,0637.0,31.3
2021-12-08T12:27:00Z,00000200,01000000,-000.14,0000.31,0000.34,-000.04,-000.05,-000.15,0000.16,0000.23,0000.15,21.0,27.6,,00.0,0637.0,31.3
2021-12-08T12:28:00Z,00000200,01000000,-000.42,0000.39,0000.25,-000.50,-000.10,-000.07,0000.01,0000.07,0000.16,21.0,27.6,,00.0,0637.0,31.4
2021-12-08T12:29:00Z,00000200,01000000,-000.32,0000.60,0000.35,0000.16,0000.02,0000.29,-000.26,-000.29,-000.21,21.1,27.6,,00.0,0637.0,31.4
2021-12-08T12:30:00Z,00000200,01000000,0000.03,-000.09,-000.04,0000.42,0000.32,-000.55,-000.03,0000.16,-000.01,21.1,27.6,,00.0,0637.0,31.4
2021-12-08T12:31:00Z,00000200,01000000,0000.14,0000.19,0000.06,-000.15,0000.00,0000.11,0000.29,-000.16,0000.34,21.2,27.6,,00.0,0637.0,31.4
2021-12-08T12:32:00Z,00000200,01000000,0000.07,0000.33,0000.56,0000.73,-000.34,0000.12,-000.30,0000.13,-000.39,21.2,27.6,,00.0,0636.9,31.4
2021-12-08T12:33:00Z,00000200,01000000,0002.54,0002.66,0002.83,0000.89,0000.65,0000.79,0007.17,0007.23,0007.33,21.2,27.6,,00.0,0636.8,31.4
2021-12-08T12:34:00Z,00000200,01000000,-000.23,0000.35,0000.14,0000.37,-000.04,0000.20,0000.11,-000.23,0000.07,21.1,27.6,,00.0,0636.7,31.4
2021-12-08T12:35:00Z,00000200,01000000,-000.11,0000.30,0000.37,0000.21,0000.18,0000.30,-000.18,0000.19,-000.01,21.0,27.6,,00.0,0636.7,31.3
2021-12-08T12:36:00Z,00000200,01000000,0000.59,0000.23,0000.23,-000.02,0000.17,0000.14,0000.03,0000.09,-000.02,21.0,27.5,,00.0,0636.7,31.3
2021-12-08T12:37:00Z,00000200,01000000,0000.51,0000.46,-000.03,0000.81,-000.22,-000.14,-000.14,-000.50,0000.28,20.9,27.5,,00.0,0636.7,31.2
2021-12-08T12:38:00Z,00000200,01000000,-000.12,0000.23,0000.33,0000.37,-000.14,-000.32,-000.19,-000.30,-000.28,20.8,27.4,,00.0,0636.7,31.2
2021-12-08T12:39:00Z,00000200,01000000,-000.45,0000.16,0000.25,0000.27,-000.13,0000.29,0000.11,0000.14,-000.05,20.8,27.4,,00.0,0636.7,31.2
2021-12-08T12:40:00Z,00000200,01000000,-000.53,0000.04,0000.08,0000.27,0000.03,0000.24,0000.50,0000.43,-000.07,20.8,27.4,,00.0,0636.6,31.2
2021-12-08T12:41:00Z,00000200,01000000,-000.30,0000.22,0000.08,-000.09,0000.13,0000.09,-000.63,0000.03,0000.10,20.8,27.4,,00.0,0636.7,31.2
2021-12-08T12:42:00Z,00000200,01000000,0000.12,0000.31,0000.13,0000.02,-000.15,-000.04,0000.07,0000.03,0000.30,20.8,27.4,,00.0,0636.7,31.2
2021-12-08T12:43:00Z,00000200,01000000,0000.17,0000.49,0000.29,-000.34,0000.42,0000.07,0000.06,-000.12,-000.01,20.9,27.5,,00.0,0636.7,31.3
2021-12-08T12:44:00Z,00000200,01000000,0000.29,0000.50,0000.19,-000.24,-000.04,-000.08,0000.19,-000.08,-000.28,21.0,27.5,,00.0,0636.7,31.3
2021-12-08T12:45:00Z,00000200,01000000,0000.38,0000.65,0000.30,-000.20,-000.01,0000.21,-000.24,0000.34,0000.17,21.0,27.5,,00.0,0636.7,31.3
2021-12-08T12:46:00Z,00000200,01000000,-000.02,0000.59,0000.57,-000.14,0000.35,0000.03,0000.15,-000.09,-000.12,21.1,27.5,,00.0,0636.8,31.3
2021-12-08T12:47:00Z,00000200,01000000,-000.52,0000.13,-000.00,-000.86,-000.21,-000.11,0000.26,-000.04,-000.11,21.1,27.6,,00.0,0636.7,31.3
2021-12-08T12:48:00Z,00000200,01000000,-000.53,0000.39,0000.12,0000.39,0000.04,-000.10,-000.33,-000.16,0000.11,21.0,27.5,,00.0,0636.8,31.3
2021-12-08T12:49:00Z,00000200,01000000,0000.17,0000.57,-000.07,0000.17,0000.10,-000.13,0000.06,0000.09,0000.05,20.9,27.5,,00.0,0636.8,31.3
2021-12-08T12:50:00Z,00000200,01000000,0001.14,0000.32,-000.20,-000.25,0000.20,-000.04,-000.23,-000.50,-000.00,20.8,27.4,,00.0,0636.8,31.2
2021-12-08T12:51:00Z,00000200,01000000,-000.50,0000.42,0000.47,-000.24,-000.16,0000.23,0000.28,0000.18,0000.15,20.8,27.4,,00.0,0636.8,31.2
2021-12-08T12:52:00Z,00000200,01000000,-000.02,0000.24,0000.26,0000.09,-000.24,0000.07,-000.23,0000.12,-000.20,20.7,27.4,,00.0,0636.8,31.2
2021-12-08T12:53:00Z,00000200,01000000,0000.50,0000.22,0000.05,0000.45,0000.09,-000.07,-000.02,-000.10,-000.12,20.7,27.3,,00.0,0636.8,31.2
2021-12-08T12:54:00Z,00000200,01000000,-000.03,0000.41,0000.01,-000.44,0000.01,-000.60,-000.13,-000.45,-000.20,20.7,27.3,,00.0,0636.8,31.2
2021-12-08T12:55:00Z,00000200,01000000,0000.79,0000.33,-000.04,-000.42,-000.05,-000.07,0000.30,0000.52,0000.03,20.7,27.3,,00.0,0636.8,31.2
2021-12-08T12:56:00Z,00000200,01000000,-000.14,0000.39,0000.29,0000.22,0000.02,0000.33,-000.57,-000.04,0000.31,20.8,27.3,,00.0,0636.8,31.2
2021-12-08T12:57:00Z,00000200,41000000,,,,,,,0001.24,0001.28,0000.56,20.8,27.4,,00.0,0636.7,31.2
2021-12-08T12:58:00Z,00000200,61000000,,,,,,,-000.23,-000.60,-000.35,20.6,27.5,,00.0,0635.9,31.2
2021-12-08T12:59:00Z,00000200,21000000,,,,,,,-000.26,-000.23,-000.12,20.6,27.6,,00.0,0636.0,31.2
